Date String (YYYY-MM-DD hh:mm:ss) UTC,Instrument flags,Ambient pressure (hPa),Sample flow (lpm),Bypass flow (lpm),Sample temperature (°C),Ambient temperature (°C),ASC tube jacket temperature (°C),LED temperature (°C),Box temperature (°C),Sample RH (%),Span deviation,Mass concentration (μg/m³),Mass concentration (μg/m³),Mass concentration (μg/m³)
DateTimeUTC,F1_M11,P_M11,Q1_M11,Q2_M11,T1_M11,T2_M11,T3_M11,T4_M11,T5_M11,U1_M11,ZSPAN_M11,X0_M11,X2_M11,X1_M11
2021-08-30 12:00:00,,0826.7,4.99,0.00,30.4,29.4,00.0,39.4,32.1,21.3,0001.9,0029.95,0022.65,0021.43
2021-08-30 12:01:00,,0826.7,5.00,0.00,30.4,29.4,00.0,39.4,32.1,21.2,0001.9,0029.43,0022.63,0021.43
2021-08-30 12:02:00,,0826.7,5.00,0.00,30.4,29.5,00.0,39.4,32.2,21.1,0002.0,0029.21,0022.58,0021.41
2021-08-30 12:03:00,,0826.7,5.00,0.00,30.4,29.5,00.0,39.5,32.2,21.0,0002.0,0028.93,0022.54,0021.37
2021-08-30 12:04:00,,0826.7,5.00,0.00,30.4,29.5,00.0,39.5,32.2,20.8,0002.2,0027.77,0022.59,0021.41
2021-08-30 12:05:00,,0826.7,5.00,0.00,30.4,29.5,00.0,39.5,32.2,20.8,0002.1,0027.93,0022.71,0021.51
2021-08-30 12:06:00,,0826.7,4.99,0.00,30.4,29.5,00.0,39.5,32.2,20.7,0001.8,0028.09,0022.77,0021.56
2021-08-30 12:07:00,,0826.7,5.00,0.00,30.4,29.5,00.0,39.5,32.2,20.5,0001.9,0028.21,0022.78,0021.56
2021-08-30 12:08:00,,0826.6,5.00,0.00,30.4,29.5,00.0,39.5,32.2,20.8,0002.2,0028.19,0022.78,0021.58
2021-08-30 12:09:00,,0826.6,5.00,0.00,30.4,29.5,00.0,39.5,32.2,21.2,0002.3,0028.20,0022.80,0021.65
2021-08-30 12:10:00,,0826.6,4.99,0.00,30.5,29.5,00.0,39.5,32.2,21.1,0002.5,0028.27,0022.83,0021.69
2021-08-30 12:11:00,,0826.6,5.01,0.00,30.5,29.5,00.0,39.6,32.2,20.8,0002.6,0028.30,0022.84,0021.71
2021-08-30 12:12:00,,0826.7,4.99,0.00,30.5,29.6,00.0,39.6,32.2,20.6,0002.6,0028.40,0022.89,0021.76
2021-08-30 12:13:00,,0826.7,5.00,0.00,30.5,29.6,00.0,39.6,32.2,20.4,0002.6,0028.55,0022.93,0021.78
2021-08-30 12:14:00,,0826.7,5.01,0.00,30.5,29.6,00.0,39.6,32.2,19.9,0002.5,0028.73,0023.04,0021.88
2021-08-30 12:15:00,,0826.7,4.99,0.00,30.5,29.6,00.0,39.6,32.2,20.4,0002.5,0028.67,0023.04,0021.90
2021-08-30 12:16:00,,0826.7,5.00,0.00,30.5,29.6,00.0,39.6,32.2,19.8,0002.5,0029.18,0023.03,0021.89
2021-08-30 12:17:00,,0826.7,5.00,0.00,30.5,29.6,00.0,39.6,32.2,20.2,0002.7,0029.69,0023.06,0021.92
2021-08-30 12:18:00,,0826.7,5.00,0.00,30.5,29.6,00.0,39.6,32.3,20.7,0002.7,0029.59,0023.01,0021.90
2021-08-30 12:19:00,,0826.7,5.00,0.00,30.5,29.6,00.0,39.6,32.3,20.7,0002.7,0029.50,0022.94,0021.89
2021-08-30 12:20:00,,0826.6,5.01,0.00,30.5,29.6,00.0,39.6,32.3,19.7,0002.6,0029.67,0022.96,0021.95
2021-08-30 12:21:00,,0826.6,5.00,0.00,30.5,28.3,00.0,39.6,32.0,19.2,0002.5,0030.10,0023.10,0022.09
2021-08-30 12:22:00,,0826.7,5.00,0.00,30.3,26.5,00.0,39.6,31.5,18.5,0002.5,0030.30,0023.36,0022.37
2021-08-30 12:23:00,,0826.7,5.00,0.00,30.2,26.3,00.0,39.5,31.4,18.2,0002.6,0030.74,0023.66,0022.67
2021-08-30 12:24:00,,0826.7,5.00,0.00,30.1,26.7,00.0,39.5,31.4,17.7,0002.7,0031.43,0024.02,0023.00
2021-08-30 12:25:00,,0826.7,5.00,0.00,30.0,27.2,00.0,39.4,31.4,17.8,0002.8,0031.55,0024.20,0023.22
2021-08-30 12:26:00,,0826.6,5.01,0.00,30.0,27.5,00.0,39.4,31.5,18.0,0002.7,0031.84,0024.48,0023.48
2021-08-30 12:27:00,,0826.7,5.00,0.00,30.0,27.8,00.0,39.3,31.5,19.0,0002.9,0031.72,0024.72,0023.73
2021-08-30 12:28:00,,0826.7,5.00,0.00,30.0,28.0,00.0,39.3,31.6,18.8,0002.6,0032.02,0024.85,0023.85
2021-08-30 12:29:00,,0826.7,5.01,0.00,30.0,28.2,00.0,39.3,31.6,18.6,0002.5,0032.35,0025.09,0024.08
2021-08-30 12:30:00,,0826.7,5.00,0.00,30.0,28.4,00.0,39.3,31.6,18.7,0002.4,0032.58,0025.37,0024.32
2021-08-30 12:31:00,,0826.7,5.00,0.00,30.0,28.5,00.0,39.2,31.7,18.8,0002.4,0032.72,0025.56,0024.47
2021-08-30 12:32:00,,0826.7,5.01,0.00,30.0,28.6,00.0,39.2,31.7,19.2,0002.4,0032.29,0025.57,0024.47
2021-08-30 12:33:00,,0826.6,4.99,0.00,30.0,28.7,00.0,39.2,31.7,20.6,0002.5,0032.40,0025.45,0024.35
2021-08-30 12:34:00,,0826.6,5.00,0.00,30.0,28.7,00.0,39.2,31.8,22.3,0002.2,0032.04,0025.08,0024.00
2021-08-30 12:35:00,,0826.6,5.01,0.00,30.0,28.8,00.0,39.2,31.8,23.0,0002.1,0031.00,0024.51,0023.46
2021-08-30 12:36:00,,0826.7,5.00,0.00,30.1,28.9,00.0,39.2,31.7,22.3,0002.2,0030.47,0024.05,0023.03
2021-08-30 12:37:00,,0826.7,5.01,0.00,30.1,28.9,00.0,39.2,31.8,21.7,0002.1,0030.16,0023.66,0022.63
2021-08-30 12:38:00,,0826.7,4.99,0.00,30.1,29.0,00.0,39.2,31.9,20.6,0002.0,0029.90,0023.38,0022.36
2021-08-30 12:39:00,,0826.7,5.01,0.00,30.1,29.0,00.0,39.2,31.9,21.3,0002.2,0029.21,0023.07,0022.09
2021-08-30 12:40:00,,0826.7,4.99,0.00,30.1,29.1,00.0,39.2,31.9,21.1,0002.2,0028.94,0022.81,0021.80
2021-08-30 12:41:00,,0826.7,5.00,0.00,30.1,29.1,00.0,39.2,31.9,22.0,0002.3,0028.73,0022.57,0021.53
2021-08-30 12:42:00,,0826.7,4.99,0.00,30.2,29.1,00.0,39.2,31.9,23.1,0002.1,0028.59,0022.20,0021.16
2021-08-30 12:43:00,,0826.7,4.99,0.00,30.2,29.1,00.0,39.3,31.9,22.9,0001.9,0028.20,0021.82,0020.82
2021-08-30 12:44:00,,0826.7,4.99,0.00,30.2,29.1,00.0,39.3,32.0,23.8,0001.8,0028.94,0021.51,0020.46
2021-08-30 12:45:00,,0826.7,5.01,0.00,30.2,29.2,00.0,39.3,32.0,24.1,0001.6,0028.40,0021.24,0020.18
2021-08-30 12:46:00,,0826.7,4.99,0.00,30.2,29.2,00.0,39.3,32.0,23.9,0001.6,0028.44,0021.18,0020.07
2021-08-30 12:47:00,,0826.7,5.01,0.00,30.2,29.2,00.0,39.3,32.0,23.8,0001.4,0028.54,0021.18,0020.01
2021-08-30 12:48:00,,0826.7,5.00,0.00,30.2,29.3,00.0,39.3,32.0,23.3,0001.5,0028.37,0021.07,0019.89
2021-08-30 12:49:00,,0826.7,5.00,0.00,30.3,29.3,00.0,39.3,32.0,24.0,0001.5,0028.24,0020.80,0019.66
2021-08-30 12:50:00,,0826.7,4.99,0.00,30.3,29.3,00.0,39.3,32.0,24.0,0001.6,0027.69,0020.52,0019.38
2021-08-30 12:51:00,,0826.7,5.00,0.00,30.3,29.3,00.0,39.4,32.0,23.6,0001.7,0027.65,0020.34,0019.19
2021-08-30 12:52:00,,0826.7,5.02,0.00,30.3,29.3,00.0,39.4,32.0,24.0,0001.6,0027.87,0020.14,0019.00
2021-08-30 12:53:00,,0826.8,5.00,0.00,30.3,29.3,00.0,39.4,32.1,24.1,0001.7,0027.54,0019.99,0018.84
2021-08-30 12:54:00,,0826.7,5.00,0.00,30.3,29.3,00.0,39.4,32.1,23.9,0001.8,0027.58,0019.91,0018.75
2021-08-30 12:55:00,,0826.7,5.00,0.00,30.3,29.3,00.0,39.4,32.1,23.9,0001.8,0026.41,0019.88,0018.67
2021-08-30 12:56:00,,0826.7,5.00,0.00,30.4,29.4,00.0,39.4,32.1,23.0,0002.0,0026.75,0019.94,0018.70
2021-08-30 12:57:00,,0826.7,5.00,0.00,30.4,29.4,00.0,39.4,32.1,23.3,0002.0,0027.42,0020.02,0018.78
2021-08-30 12:58:00,,0826.7,5.01,0.00,30.4,29.4,00.0,39.4,32.1,21.9,0001.9,0027.63,0020.16,0018.93
2021-08-30 12:59:00,,0826.7,5.01,0.00,30.4,29.4,00.0,39.4,32.1,22.8,0001.7,0027.77,0020.25,0019.01
